CAPE
0 0 0 0 0 0 0 0 0 0 0 0 0 0 0 0 0 0 0 1 0 0 0 52 51 63 85 26 52 24 62 6 4 1 1 2 2 4 3 2 6 6 5 4 6 5 5 2 1
0 0 0 0 0 0 0 0 0 0 0 0 0 0 0 0 0 0 1 1 0 0 14 32 7 29 95 158 24 76 79 10 2 1 2 3 3 6 7 4 4 5 7 4 3 4 5 3 0
0 0 0 0 0 0 0 0 0 0 0 0 0 0 0 0 0 0 1 0 0 0 10 0 26 66 183 137 52 77 70 0 1 1 5 4 5 6 4 3 2 3 4 3 1 1 0 0 0
0 0 0 0 0 0 0 0 0 0 0 0 0 0 0 0 0 0 0 0 0 7 0 9 50 78 177 119 56 48 26 0 1 0 5 3 0 5 0 0 0 0 0 0 0 0 0 0 0
0 0 0 0 0 0 0 0 0 0 0 0 0 0 0 0 0 0 0 0 0 0 0 10 55 52 23 42 84 51 50 0 0 4 12 9 7 0 0 0 0 0 0 0 0 0 0 0 0
0 0 0 0 0 0 0 0 0 0 0 0 0 0 0 0 0 0 0 0 1 0 0 0 10 48 73 76 27 3 1 1 0 2 3 1 0 0 0 0 0 0 0 0 0 0 0 0 0
0 0 0 0 0 0 0 0 0 0 0 0 0 0 0 0 0 0 0 0 1 2 0 0 0 0 0 0 0 0 0 0 0 0 0 0 0 0 0 0 0 0 0 0 0 0 0 0 0
0 0 0 0 0 0 0 0 0 0 3 0 0 0 0 0 0 1 0 0 3 3 0 0 0 0 0 0 0 0 0 0 0 0 0 0 0 0 0 0 0 0 0 0 0 0 0 0 0
0 0 0 0 0 0 0 1 0 0 0 0 0 0 0 0 1 2 1 3 5 3 0 0 0 0 0 0 0 0 0 0 0 0 0 0 0 0 0 0 0 0 0 0 0 0 0 0 0
0 0 0 0 0 0 0 0 16 24 1 0 0 0 0 0 2 0 2 2 3 4 1 0 0 0 0 0 0 0 0 0 0 0 0 0 0 0 0 0 0 0 0 0 0 0 0 0 0
0 0 0 0 0 0 0 0 0 40 21 0 14 1 0 0 2 2 0 0 0 1 2 0 0 0 0 0 0 0 0 0 0 0 0 0 0 0 0 0 0 0 0 0 1 0 0 0 0
0 0 0 0 0 0 0 0 0 6 22 2 21 0 0 0 0 0 0 0 1 1 1 0 0 0 0 0 0 0 0 0 0 0 0 0 0 0 0 0 0 4 8 9 0 0 0 0 0
7 1 0 0 0 0 0 0 0 0 0 0 1 0 0 0 0 0 0 1 0 0 1 0 0 0 0 0 0 0 0 0 0 0 0 0 0 0 0 0 0 0 0 0 0 0 0 0 0
17 9 1 0 0 0 0 0 0 0 0 0 0 0 0 0 0 1 0 0 0 0 2 1 0 0 0 0 0 0 0 0 0 0 0 0 0 0 0 0 0 0 0 0 0 0 0 0 0
16 7 16 1 0 0 0 0 0 0 0 0 0 0 0 0 1 0 1 0 0 0 0 0 0 0 0 0 0 0 0 0 0 0 0 1 5 1 0 0 0 0 0 0 0 0 0 0 0
8 3 3 6 3 0 0 0 0 0 0 0 0 0 0 0 0 0 0 0 0 1 1 0 0 0 0 0 0 0 1 0 0 0 0 0 0 0 0 0 0 0 0 0 0 0 0 0 0
1 3 3 21 20 3 0 0 0 0 0 0 11 14 0 0 1 0 0 0 0 0 0 0 0 0 0 0 0 0 0 0 0 0 0 0 0 0 0 0 0 0 0 0 0 0 0 0 0
1 3 10 21 18 17 6 0 0 0 2 0 17 37 0 0 0 0 0 0 0 0 0 0 0 0 0 0 0 0 0 0 0 0 0 0 0 0 0 0 0 0 0 0 0 0 0 0 0
18 0 1 3 0 0 10 32 11 0 4 1 16 42 34 15 1 0 0 0 0 0 0 0 0 0 0 0 0 0 0 0 0 0 0 0 0 0 0 0 0 0 0 0 0 0 0 0 0
1 1 0 0 2 0 0 0 0 0 0 3 4 22 41 25 2 0 0 0 0 0 0 0 0 0 0 0 0 0 0 0 0 0 0 0 0 0 0 0 0 0 0 0 0 0 0 0 0
2 0 1 1 20 0 2 0 0 0 4 12 6 22 23 26 7 0 0 0 0 0 0 0 0 0 0 0 0 0 0 0 0 0 0 0 0 0 0 0 0 0 0 0 0 0 0 0 0
0 0 5 5 1 0 5 0 0 0 0 0 0 6 16 1 1 0 0 0 0 0 0 1 0 0 0 0 0 0 0 0 0 0 0 0 0 0 0 0 0 0 0 0 0 0 0 0 0
0 0 0 7 7 0 1 1 0 0 7 1 0 2 8 1 0 0 0 0 0 0 0 0 0 0 0 0 0 0 0 0 0 0 0 0 0 0 0 0 0 0 0 0 0 0 0 0 0
2 19 21 3 0 0 0 1 0 0 0 2 0 2 15 0 0 0 0 0 0 1 0 0 0 0 0 0 0 0 0 0 0 0 0 0 2 0 0 0 0 0 0 0 0 0 0 0 0
0 22 7 2 1 0 14 1 0 0 0 0 0 0 3 0 0 0 0 0 0 1 4 2 1 3 0 0 0 0 0 0 0 0 2 2 0 0 0 0 0 0 0 0 0 0 0 0 0
0 14 7 0 0 0 0 0 0 0 0 0 0 2 0 0 0 0 0 2 1 2 4 3 3 8 2 2 2 1 0 1 1 1 2 0 0 0 0 0 0 0 0 0 0 0 0 0 0
0 0 0 34 0 1 0 0 0 0 0 0 0 0 0 0 1 1 1 3 3 4 4 3 4 5 4 3 3 2 1 1 1 0 0 0 0 0 0 0 0 0 0 0 0 0 0 0 0
0 0 0 8 8 0 0 0 0 0 0 0 0 0 0 2 5 5 5 5 5 5 5 4 4 4 3 2 1 0 1 0 0 0 0 0 0 0 0 0 0 0 0 0 0 0 0 0 0
1 0 0 0 0 2 0 0 0 0 1 2 2 2 1 4 6 6 4 4 3 3 2 3 3 3 3 1 1 0 0 0 0 0 0 0 0 0 0 0 0 0 0 0 0 0 0 0 0
0 0 0 0 0 0 0 0 1 3 1 0 2 2 4 5 7 4 4 3 2 1 2 1 1 1 2 3 0 0 0 0 0 0 0 0 0 0 0 0 0 0 0 0 0 0 0 0 0
CIN
0 0 0 0 0 0 0 0 0 0 0 0 0 0 0 0 0 0 0 0 0 0 0 -56 -37 -31 -28 -31 -10 -13 -15 -3 0 0 0 0 0 0 0 -1 0 0 0 0 0 0 0 0 0
0 0 0 0 0 0 0 0 0 0 0 0 0 0 0 0 0 0 0 0 0 0 -107 -81 -71 -40 -11 -3 -16 -5 -4 -12 0 0 0 0 0 0 0 0 0 0 0 -1 0 0 0 0 0
0 0 0 0 0 0 0 0 0 0 0 0 0 0 0 0 0 0 0 0 0 0 -157 0 -50 -15 -2 -2 -5 -2 -2 0 0 0 0 0 0 0 0 0 0 0 0 0 0 0 0 0 0
0 0 0 0 0 0 0 0 0 0 0 0 0 0 0 0 0 0 -1 0 0 -236 0 -129 -28 -12 -1 -4 -14 -7 -2 0 0 0 0 0 0 0 0 0 0 0 0 0 0 0 0 0 0
0 0 0 0 0 0 0 0 0 0 0 0 0 0 0 0 0 0 0 0 0 0 0 -119 -29 -30 -59 -17 -1 -1 0 0 0 0 0 0 -1 0 0 0 0 0 0 0 0 0 0 0 0
0 0 0 0 0 0 0 0 0 0 0 0 0 0 0 0 0 0 0 0 -1 0 0 0 -84 -33 -13 -5 -1 -1 -1 0 0 0 0 0 0 0 0 0 0 0 0 0 0 0 0 0 0
0 0 0 0 0 0 0 0 0 0 0 0 0 0 0 0 0 0 0 0 -4 0 0 0 0 0 0 0 0 0 0 0 0 0 0 0 0 0 0 0 0 0 0 0 0 0 0 0 0
0 0 0 0 0 0 0 0 0 0 -30 0 0 0 0 0 0 0 0 0 -5 0 0 0 0 0 0 0 0 0 0 0 0 0 0 0 0 0 0 0 0 0 0 0 0 0 0 0 0
0 0 0 0 0 0 0 -17 0 0 0 0 0 0 0 0 0 0 0 0 -1 0 0 0 0 0 0 0 0 0 0 0 0 0 0 0 0 0 0 0 0 0 0 0 0 0 0 0 0
0 0 0 0 0 0 0 0 -85 -87 -27 0 0 0 0 0 0 -1 0 0 -1 0 0 0 0 0 0 0 0 0 0 0 0 0 0 0 0 0 0 0 0 0 0 0 0 0 0 0 0
0 0 0 0 0 0 0 0 0 -66 -65 0 -92 -137 0 0 0 0 0 0 -1 -1 0 0 0 0 0 0 0 0 0 0 0 0 0 0 0 0 0 0 0 0 0 0 -21 0 0 0 0
0 0 0 0 0 0 0 0 0 -82 -42 -79 -176 0 0 0 0 0 0 0 0 -1 0 0 0 0 0 0 0 0 0 0 0 0 0 0 0 0 0 0 0 -24 -33 -37 -40 0 0 0 0
-1 -1 0 0 0 0 0 0 0 0 0 0 -158 0 0 0 0 0 0 0 -1 0 -1 0 0 0 0 0 0 0 0 0 0 0 0 0 0 0 0 0 0 0 0 0 0 0 0 0 0
-3 -11 -5 0 0 0 0 0 0 0 0 0 0 0 0 0 0 0 0 0 0 0 0 0 0 0 0 0 0 0 0 0 0 0 0 0 0 -12 0 0 0 0 0 0 0 0 0 0 0
-1 0 -13 -3 0 0 0 0 0 0 0 0 0 0 0 0 0 0 0 0 0 0 0 0 0 0 0 0 0 0 0 0 0 0 0 -30 -19 -41 0 0 0 0 0 0 0 0 0 0 0
0 -1 0 -5 -22 0 0 0 0 0 0 0 0 0 0 0 0 0 0 0 0 0 0 0 0 0 0 0 0 0 -25 0 0 0 0 0 0 0 0 0 0 0 0 0 0 0 0 0 0
0 -1 0 0 -4 -5 0 0 0 0 0 0 -191 -250 0 0 0 0 0 0 0 0 0 0 0 0 0 0 0 0 0 0 0 0 0 0 0 0 0 0 0 0 0 0 0 0 0 0 0
0 -1 -3 0 -12 -9 -9 0 0 0 -36 0 -138 -211 -33 0 0 0 0 0 0 0 0 0 0 0 0 0 0 0 0 0 0 0 0 0 0 0 0 0 0 0 0 0 0 0 0 0 0
-1 0 -9 -1 0 0 -3 -1 -16 -19 -91 -119 -128 -170 -245 -270 0 0 0 0 0 0 0 0 0 0 0 0 0 0 0 0 0 0 0 0 0 0 0 0 0 0 0 0 0 0 0 0 0
-8 -13 0 0 -1 0 0 0 0 -3 0 -82 -99 -131 -212 -229 -182 0 0 0 0 0 0 0 0 0 0 0 0 0 0 0 0 0 0 0 0 0 0 0 0 0 0 0 0 0 0 0 0
-5 0 0 -3 -2 -9 0 0 0 0 -20 -53 -75 -112 -147 -207 -251 0 0 0 0 0 0 0 -20 0 0 0 0 0 0 0 0 0 0 0 0 0 0 0 0 0 0 0 0 0 0 0 0
0 0 -9 0 -47 0 -3 0 0 0 0 0 -1 -90 -105 -57 0 0 0 0 0 0 0 -13 -12 0 0 0 0 0 0 0 0 0 0 0 0 0 0 0 0 0 0 0 0 0 0 0 0
0 0 -1 -38 -62 0 -3 -19 0 0 -1 0 0 -76 -115 -23 0 0 0 0 0 0 0 0 0 0 0 0 0 0 0 0 0 0 0 0 0 0 0 0 0 0 0 0 0 0 0 0 0
-6 -8 -12 -29 0 0 0 0 0 0 0 -1 -8 -15 -36 -6 0 0 0 0 0 0 0 0 0 0 0 0 0 0 0 0 0 0 0 0 0 0 0 0 0 0 0 0 0 0 0 0 0
0 -7 -19 -2 -8 0 -61 0 0 0 0 0 0 -7 -31 0 0 0 0 0 0 0 0 0 0 0 0 0 0 0 0 0 0 0 0 0 0 0 0 0 0 0 0 0 0 0 0 0 0
0 -21 -3 0 0 0 0 -9 0 0 0 0 -1 -20 0 0 0 0 0 0 0 0 0 0 0 0 0 0 0 0 0 0 0 0 0 0 0 0 0 0 0 0 0 0 0 0 0 0 0
0 0 0 -48 0 -1 0 0 0 0 0 0 0 0 0 0 0 0 0 0 0 0 0 0 0 0 0 0 0 0 0 0 0 0 0 0 0 0 0 0 0 0 0 0 0 0 0 0 0
0 0 -8 -49 -5 0 0 0 0 0 0 0 0 0 0 0 0 0 0 0 0 0 0 0 0 0 0 0 0 0 0 0 0 0 0 0 0 0 0 0 0 0 0 0 0 0 0 0 0
-6 0 0 0 0 -22 0 0 0 0 0 0 0 0 0 0 0 0 0 0 0 0 0 0 0 0 0 0 0 0 0 0 0 0 0 0 0 0 0 0 0 0 0 0 0 0 0 0 0
0 0 0 0 0 0 0 0 0 0 0 0 0 0 0 0 0 0 0 0 0 0 0 0 0 0 0 0 0 0 0 0 0 0 0 0 0 0 0 0 0 0 0 0 0 0 0 0 0
Wind_Speed
23 18 16 14 20 21 19 20 18 16 17 17 12 16 9 15 12 14 13 22 21 20 22 21 17 16 19 18 15 16 17 18 18 20 21 21 20 20 20 18 18 19 20 21 22 22 22 22 22
23 17 14 13 22 25 24 19 19 17 15 7 9 14 16 17 15 11 8 3 17 17 13 7 3 6 21 23 19 19 20 18 17 19 19 19 18 18 17 17 18 19 20 20 21 22 22 22 22
20 17 13 18 21 27 25 20 16 14 8 16 15 17 16 18 16 8 10 9 10 9 8 5 4 6 15 17 16 16 17 13 15 16 16 16 16 16 16 17 18 19 20 21 21 22 22 22 22
20 16 15 18 25 24 22 21 16 8 16 14 14 17 18 20 10 10 8 8 8 7 5 4 5 7 11 13 13 14 14 12 14 14 14 14 14 15 15 16 17 18 19 20 21 22 22 23 22
18 15 22 23 23 23 21 20 13 12 15 15 14 18 18 14 9 7 10 9 7 6 4 3 6 9 11 12 12 13 13 12 13 13 12 14 14 16 17 17 17 18 19 20 21 21 22 23 23
18 16 26 28 23 25 22 16 16 17 18 15 16 14 16 12 5 7 7 8 7 6 4 4 5 8 10 11 11 9 8 10 11 12 12 13 15 16 16 17 17 18 19 20 21 22 23 23 24
19 21 27 27 27 28 22 14 15 17 18 21 13 15 17 10 2 6 6 5 5 4 4 3 3 4 6 8 9 9 9 10 11 12 12 13 14 15 15 16 17 18 19 19 20 21 22 23 24
17 19 25 24 26 28 22 18 18 15 20 16 13 20 21 9 4 5 6 4 2 3 3 3 1 1 2 5 7 8 9 10 10 11 12 12 13 13 14 15 16 17 18 19 21 22 23 24 25
20 26 29 25 23 25 23 23 20 18 18 18 16 17 18 4 6 5 5 4 4 4 3 2 2 1 0 2 4 6 7 8 8 9 10 11 12 12 13 14 15 17 18 19 21 22 23 24 26
25 30 29 23 22 26 28 27 25 22 20 22 19 17 8 4 6 7 7 7 7 7 6 5 2 1 1 2 2 4 5 6 6 7 8 9 10 11 12 13 15 16 18 20 21 22 23 25 25
27 31 27 27 26 27 27 28 25 28 24 18 15 12 6 6 7 8 9 8 9 8 7 6 4 2 1 0 1 2 3 4 5 7 8 9 10 10 12 13 14 16 18 19 20 22 23 25 25
34 29 24 28 32 31 30 28 30 28 30 28 20 11 8 8 8 10 10 9 10 10 9 8 5 3 2 1 0 1 2 4 5 6 7 8 9 10 11 13 14 16 17 18 20 22 24 25 26
32 31 29 25 28 32 34 36 34 31 33 28 17 12 11 9 9 10 11 9 10 11 10 9 7 5 4 2 1 0 1 3 5 8 8 8 9 10 11 12 14 17 18 19 20 23 24 25 25
31 28 30 30 32 31 34 37 32 33 31 29 22 16 15 14 11 10 10 12 12 11 11 11 9 7 6 5 4 2 2 4 6 8 8 8 10 9 10 12 15 17 18 19 20 22 24 25 25
35 44 41 32 32 32 29 46 40 33 30 30 27 24 19 17 15 13 12 12 12 12 12 12 11 10 7 6 4 5 6 6 6 7 9 10 10 10 11 13 15 17 18 19 20 22 23 24 24
36 39 49 36 33 32 31 61 31 30 32 34 31 27 25 21 18 17 14 12 11 11 12 12 11 10 9 7 6 7 7 7 7 8 9 9 10 11 12 14 17 19 19 20 22 22 23 24 23
39 51 47 44 29 31 32 53 38 30 31 37 33 31 27 25 21 19 17 15 12 11 12 12 11 10 8 7 6 6 6 8 9 10 10 11 11 12 13 15 17 19 20 21 22 24 24 26 23
46 50 46 45 33 33 38 46 36 31 33 36 35 33 32 27 23 21 19 17 15 12 12 12 11 10 8 7 6 7 8 9 9 10 11 12 12 13 14 15 17 19 20 21 22 23 24 25 23
45 52 53 44 33 35 44 50 43 37 35 35 37 35 33 33 28 24 21 20 16 14 13 13 12 11 10 8 8 8 8 9 10 11 11 12 13 13 14 15 17 18 20 22 24 23 24 27 24
42 46 59 52 41 38 48 51 45 42 41 38 38 38 34 33 27 27 23 21 18 16 14 14 13 12 11 11 11 11 9 10 9 10 11 12 13 14 15 16 18 19 20 24 26 27 25 26 27
43 48 46 49 40 37 43 56 53 48 40 41 39 38 35 32 30 27 25 23 21 17 16 15 14 13 13 11 9 8 8 9 11 11 12 13 12 14 15 16 18 21 23 25 26 27 24 23 25
47 39 45 45 43 62 38 64 48 43 45 43 42 39 36 31 31 28 27 24 22 19 17 16 15 14 14 12 11 10 11 11 12 10 9 11 12 14 16 18 20 23 23 24 24 23 23 21 21
41 34 38 41 46 45 47 51 51 33 43 44 47 46 40 35 31 27 27 24 21 19 18 17 15 15 14 13 13 12 11 10 8 7 8 10 13 17 17 19 21 21 21 21 21 22 23 23 22
29 33 35 37 38 47 45 52 57 44 40 41 48 46 47 35 28 26 24 23 21 20 20 19 16 16 14 13 12 12 10 8 6 7 8 10 12 16 17 17 18 19 19 20 20 21 22 23 23
24 27 32 38 35 43 33 42 57 39 40 41 42 51 41 35 34 26 25 25 20 20 19 18 17 16 15 13 12 9 6 9 5 5 7 9 14 15 15 16 17 17 18 19 20 21 23 23 24
20 24 30 37 38 36 34 39 43 41 44 45 39 39 40 38 33 32 29 24 20 20 18 19 15 13 11 11 10 6 6 4 5 6 7 11 12 13 14 15 16 16 17 19 20 22 22 23 24
23 33 25 33 29 33 29 30 35 35 39 32 32 35 33 32 33 29 30 27 24 21 18 16 15 14 11 9 9 5 5 4 4 7 9 9 11 13 14 15 15 17 18 19 20 21 22 23 24
23 29 20 28 34 36 32 30 30 30 29 25 26 31 32 27 29 27 29 23 19 17 14 13 14 10 8 5 4 2 3 4 5 7 8 9 11 12 13 15 16 17 19 20 20 21 22 24 25
21 22 18 21 28 29 34 29 25 30 32 25 24 27 29 27 23 24 26 20 17 15 14 11 9 13 4 3 2 2 3 4 6 8 8 9 10 12 13 15 16 18 19 20 21 22 23 24 25
23 19 21 22 26 27 26 25 27 26 26 21 20 23 24 25 25 20 19 20 16 14 10 12 7 6 4 3 3 5 3 4 6 7 8 9 11 12 14 15 16 18 19 21 22 23 24 25 26
Wind_Direction
302 297 297 299 271 270 268 263 264 271 256 257 280 264 109 278 319 300 248 186 115 112 116 113 98 95 110 107 93 91 89 80 64 64 67 67 63 58 51 36 33 32 34 35 33 31 28 27 28
304 301 301 296 268 259 261 269 264 268 271 332 307 283 282 284 288 325 34 32 107 107 96 74 5 56 121 126 110 103 103 86 65 62 65 64 56 50 40 33 30 32 32 31 30 29 27 26 24
312 300 299 277 270 258 262 267 272 282 307 275 279 283 286 282 287 66 287 88 95 93 87 66 19 33 107 114 105 100 98 71 56 55 56 55 47 42 37 36 34 33 33 32 31 29 26 22 19
305 304 299 279 267 270 273 274 275 280 283 285 290 286 286 272 335 300 89 93 96 92 85 66 38 49 81 103 99 99 91 66 53 51 55 50 44 37 30 32 35 36 34 33 31 29 25 21 17
308 301 277 274 274 277 280 282 279 273 279 282 290 282 284 299 341 68 106 102 100 95 86 69 55 65 81 91 94 93 85 63 57 54 45 48 43 46 47 42 38 34 30 29 27 25 23 19 16
298 299 273 269 277 271 283 286 279 273 275 282 285 292 292 306 24 94 110 109 102 104 94 86 72 69 77 83 86 75 53 48 52 56 51 52 53 54 53 48 42 37 35 34 31 31 27 22 18
288 284 274 275 275 268 279 284 278 274 276 274 294 286 290 296 356 114 120 117 109 110 104 97 87 77 75 79 79 73 62 55 56 60 57 53 56 55 50 47 44 38 31 24 23 19 16 14 11
284 285 277 278 275 274 279 278 282 274 275 294 285 283 282 278 141 130 131 139 164 153 131 110 105 78 67 68 76 70 65 63 58 56 55 51 46 45 45 42 36 31 29 24 17 9 4 5 3
278 273 270 273 277 276 286 277 278 284 279 279 282 289 293 153 150 160 163 187 187 202 190 173 128 135 1 53 52 61 63 61 53 45 46 50 46 43 42 40 34 26 19 14 7 0 -0 1 359
268 267 269 275 277 277 279 280 278 272 272 273 279 285 302 183 190 195 205 201 194 186 217 221 201 173 228 309 33 47 55 47 31 22 26 14 12 9 14 19 19 22 15 14 13 11 9 8 9
274 269 269 270 274 279 279 277 274 270 268 272 267 266 254 221 222 221 222 215 201 192 209 219 209 187 155 96 358 359 25 28 23 17 8 360 1 11 23 24 15 12 11 15 13 12 9 5 5
274 276 270 269 269 273 274 279 273 268 269 276 271 252 227 216 221 223 220 216 206 207 215 220 207 215 233 266 352 48 42 38 13 357 354 358 6 14 3 359 4 10 12 11 10 7 4 1 2
275 277 274 270 271 270 272 270 273 269 266 278 270 244 224 222 234 233 233 223 212 206 216 222 219 227 241 226 235 172 26 360 343 332 338 348 357 354 356 8 1 359 1 2 1 360 359 359 1
283 284 275 271 268 272 271 271 271 270 265 266 265 247 238 235 231 223 212 224 223 221 214 228 229 235 245 244 243 243 297 319 321 326 328 335 339 351 357 355 353 354 355 356 358 357 356 356 357
284 276 276 274 270 268 273 266 264 267 267 259 262 258 248 243 238 224 212 219 218 223 228 222 232 244 247 240 242 266 287 301 314 327 330 328 337 346 349 348 348 349 351 353 354 354 354 354 356
282 276 269 274 267 268 264 259 269 266 262 259 255 258 253 246 240 240 231 220 218 219 218 218 227 234 245 248 257 272 286 298 312 321 331 335 336 341 343 343 342 343 345 348 349 350 350 351 353
273 268 270 273 268 266 256 264 263 263 262 258 255 253 252 250 247 243 235 228 214 214 209 213 222 221 235 250 259 275 290 300 308 314 322 328 334 339 343 344 343 344 344 344 346 346 346 345 347
269 267 271 273 279 263 259 265 266 260 258 259 255 252 250 247 242 241 238 233 230 216 209 208 220 223 231 245 260 279 292 299 306 313 319 325 331 334 339 341 342 343 345 346 346 345 347 348 346
274 269 268 271 283 280 267 266 264 259 258 257 253 249 248 247 246 241 238 235 232 226 214 210 218 221 224 239 252 269 278 291 301 311 319 324 330 336 339 341 343 344 344 344 343 343 343 345 343
274 275 266 272 271 276 272 269 268 260 251 252 251 250 247 245 242 240 235 233 230 225 221 220 219 219 231 242 259 270 275 292 302 312 321 328 335 338 340 342 343 345 342 341 340 339 336 342 343
272 272 276 272 274 270 273 269 266 264 251 247 249 248 247 242 240 236 234 230 233 228 226 227 228 228 236 244 251 268 283 292 298 307 318 325 334 340 343 344 344 341 339 337 339 338 340 341 349
271 275 276 274 274 260 265 263 266 264 246 245 243 243 242 240 239 237 233 231 230 234 234 234 232 235 240 241 243 238 264 272 289 301 317 331 339 344 341 341 342 343 342 342 345 351 351 354 352
277 275 275 280 270 268 258 259 259 264 249 241 241 242 243 238 236 232 230 230 233 236 238 240 241 244 245 247 249 256 267 277 286 302 318 329 335 336 340 342 342 349 356 359 3 2 3 3 359
289 276 272 277 269 263 257 252 254 251 253 252 240 242 235 233 232 234 229 228 231 239 241 244 245 251 251 254 254 257 253 256 268 290 311 322 340 345 350 355 356 2 4 7 7 8 7 6 5
284 269 265 266 257 260 277 256 249 255 256 252 241 234 233 232 229 228 227 225 226 233 238 242 245 251 254 255 256 254 263 267 254 290 324 331 328 338 4 6 5 7 7 8 11 9 9 8 6
283 261 263 261 259 268 277 264 250 259 259 257 241 231 229 232 231 228 229 224 226 232 237 242 244 244 255 262 263 253 252 296 297 324 333 347 341 342 10 13 15 15 12 10 12 11 12 11 7
270 257 266 264 266 268 275 269 256 270 262 244 227 222 220 224 226 226 228 232 237 237 240 241 242 247 251 254 255 285 285 352 311 337 8 358 351 7 15 18 13 12 13 15 15 12 10 7 5
229 258 272 256 254 259 255 254 271 262 251 231 224 220 219 226 223 223 227 228 234 240 239 249 247 240 188 244 254 352 327 336 13 12 21 15 16 19 19 17 16 15 15 14 12 8 6 5 1
239 287 288 263 251 243 234 250 286 263 249 243 227 223 218 219 220 224 229 233 233 235 239 241 239 235 208 189 136 37 37 358 27 41 36 23 24 25 11 17 19 14 11 9 7 5 3 1 358
253 261 270 253 235 238 238 268 300 269 251 241 232 223 222 224 223 221 223 229 224 232 215 249 227 230 258 245 263 80 61 2 36 42 35 31 27 25 22 16 12 10 7 5 3 1 359 357 355